Location: Fours
(44.3167°N, 6.7000°E)
Time: 10:03:43
(UTC+00:00)

CZ-2D R/B - Pass Details

Date: 16 October 2021
Orbit: 519 x 537 km, 97.4° (Epoch: 07 December)

Event Time Altitude Azimuth Distance (km) Brightness Sun altitude
Rises 17:08:59 0° 158° (SSE) 2,651 6.7 -4.7°
Reaches altitude 10° 17:11:05 10° 155° (SSE) 1,770 5.7 -5.0°
Maximum altitude 17:14:52 62° 75° (ENE) 605 3.3 -5.7°
Drops below altitude 10° 17:18:41 10° 355° (N) 1,795 5.9 -6.4°
Sets 17:20:50 0° 352° (N) 2,694 6.9 -6.8°
